Location: Courrières
(50.4570°N, 2.9472°E)
Time: 15:09:47
(UTC+00:00)

Daily predictions for brighter satellites

Satellite Brightness Start Highest point End
(mag) Time Altitude Azimuth Time Altitude Azimuth Time Altitude Azimuth
SPOT 5 3.9 20:13:06 10° SE 20:17:54 36° ENE 20:22:36 10° N
ARGOS Delta rocket 4.2 20:14:03 10° NNE 20:19:31 64° E 20:24:56 10° S
Meteor 1-11 Rocket 4.0 20:14:03 10° N 20:20:01 68° ENE 20:25:57 10° SSE
USA 267 4.1 20:13:49 10° ENE 20:20:06 51° N 20:26:23 10° WNW
Resurs 01 Rocket 1.8 20:15:56 10° S 20:20:20 78° WSW 20:24:46 10° NNW
BREEZE M DEB (TANK) 3.1 20:19:38 10° W 20:22:51 72° S 20:32:53 10° ESE
Cosmos 1633 Rocket 3.2 20:19:19 10° NNW 20:23:44 83° W 20:28:06 10° S
Cosmos 2208 Rocket 4.3 20:19:47 10° NNW 20:25:15 75° WSW 20:30:38 10° SSE
NOSS 3-2 (C) 4.4 20:18:32 10° NW 20:25:53 64° SW 20:34:20 10° SSE
Cosmos 1151 Rocket 3.1 20:21:42 10° SSW 20:26:00 81° W 20:30:18 10° N
Cosmos 389 Rocket 3.1 20:27:06 10° N 20:30:25 40° ENE 20:33:45 10° SE
Cosmos 1470 Rocket 3.5 20:26:40 10° N 20:31:02 72° E 20:35:20 10° SSE
ATLAS 3B R/B 4.1 20:26:33 10° NW 20:33:07 37° NNE 20:40:00 10° E
SJ 16-02 3.2 20:32:59 10° SE 20:35:22 14° E 20:37:45 10° ENE
ISS -3.4 20:33:13 10° W 20:36:35 69° N 20:39:56 10° E
Cosmos 968 Rocket 3.4 20:31:35 10° SSW 20:36:45 81° ESE 20:41:54 10° NNE
Cosmos 405 2.9 20:33:49 10° NNW 20:37:14 81° W 20:40:38 10° S
Cosmos 1464 Rocket 4.2 20:31:30 10° SSE 20:37:28 52° E 20:43:26 10° NNE
ERS-1 Rocket 3.5 20:33:49 10° SE 20:38:35 45° ENE 20:43:22 10° N
Terra 2.8 20:34:21 10° SE 20:38:39 35° ENE 20:42:59 10° N
Geosat FO 4.4 20:36:08 10° SSE 20:39:34 89° ENE 20:42:56 10° NNW
MetOp-B 4.3 20:36:23 10° SSE 20:41:45 82° WSW 20:47:09 10° NNW
IRAS Rocket 4.4 20:39:15 10° NNE 20:44:53 86° WNW 20:50:32 10° SSW
BREEZE M DEB (TANK) 4.1 20:40:37 10° SW 20:45:04 67° SSE 21:02:41 10° ENE
Cosmos 2219 3.3 20:39:34 10° NNW 20:45:14 76° WSW 20:50:50 10° SSE
CENTAUR R/B 4.3 20:38:34 10° NW 20:46:05 40° WSW 20:54:14 10° S
Aureole 1 Rocket 3.0 20:45:11 10° S 20:48:12 32° ESE 20:50:57 10° NE
Cosmos 1515 Rocket 3.6 20:44:11 10° S 20:48:29 62° E 20:52:50 10° NNE
ATLAS CENTAUR R/B 4.3 20:50:46 10° NNW 20:53:53 16° N 20:57:00 10° NE
Cosmos 2082 3.8 20:49:16 10° NNW 20:54:56 74° ENE 20:59:56 13° SE
Ariane Rocket 3.8 20:51:10 10° S 20:56:05 50° W 21:01:03 10° NNW
Nadezhda 4 Rocket 4.1 20:50:01 10° N 20:56:16 68° ENE 21:02:08 11° SSE
Timation 2 Rocket 4.3 20:50:40 10° NNW 20:57:09 70° NE 21:03:12 13° SE
Cosmos 1869 Rocket 4.2 20:54:31 10° N 20:58:50 44° ENE 21:02:21 15° SE
RESURS DK-1 4.2 20:57:48 13° ESE 20:59:00 14° ESE 21:01:12 10° ENE
Cosmos 1515 3.6 20:55:32 10° S 20:59:18 83° E 21:03:05 10° NNE
Cosmos 1536 3.1 20:57:39 10° NNW 21:01:39 67° W 21:05:38 10° S
ARIANE 5 R/B 3.2 20:59:19 14° SE 21:02:56 45° ENE 21:07:15 10° N
CARTOSAT-1 4.0 20:58:42 10° S 21:02:58 61° W 21:07:16 10° NNW
SPOT 3 Rocket 3.9 20:59:53 10° S 21:04:59 66° WSW 21:10:08 10° NNW
Cosmos 1743 2.9 21:03:08 10° NNW 21:06:55 66° W 21:10:30 11° S
Cosmos 2263 Rocket 2.7 21:02:46 10° NNW 21:08:14 52° NE 21:12:52 14° SE
Cosmos 1072 Rocket 4.5 21:03:55 10° S 21:10:02 88° W 21:16:12 10° N
Okean 1 3.7 21:07:59 14° SSE 21:11:07 46° E 21:14:59 10° NNE
Cosmos 921 Rocket 3.1 21:07:07 10° NNW 21:11:40 80° ENE 21:15:10 17° SSE
Helios 1A Rocket 3.2 21:10:59 12° S 21:14:38 63° WSW 21:18:37 10° NNW
Meteor 1-19 Rocket 4.3 21:10:30 11° S 21:15:30 53° E 21:20:46 10° NNE
Cosmos 2227 Rocket 3.2 21:13:34 10° NW 21:18:50 40° WSW 21:24:04 10° S
ASTRO F (AKARI) 4.1 21:16:56 19° SSE 21:18:58 87° WSW 21:22:06 10° NNW
Cosmos 2344 3.5 21:12:02 10° SSW 21:19:18 58° ESE 21:26:50 10° NE
Cosmos 2292 Rocket 3.5 21:16:35 10° N 21:19:43 37° ENE 21:21:13 22° SE
Cosmos 1354 Rocket 4.3 21:15:23 10° S 21:20:25 49° ESE 21:25:32 10° NNE
Cosmos 1340 2.8 21:17:01 10° SSW 21:20:44 72° WNW 21:24:29 10° N
BREEZE-M DEB (TANK) 1.5 21:18:30 10° WSW 21:20:53 69° S 21:23:07 11° E
Cosmos 2026 Rocket 4.3 21:15:37 10° N 21:21:38 54° ENE 21:26:19 17° SSE
SL-4 R/B 2.8 21:18:42 10° WNW 21:22:59 42° SSW 21:25:33 20° SSE
USA 215 4.0 21:19:44 10° ENE 21:25:17 28° SE 21:30:47 10° S
Meteor 2-14 Rocket 4.5 21:21:16 10° N 21:27:23 88° W 21:32:33 15° S
Cosmos 1486 Rocket 4.2 21:23:54 10° SSW 21:29:12 78° WNW 21:34:32 10° NNE
Spot 2 Rocket 3.8 21:25:35 13° S 21:30:02 61° WSW 21:35:04 10° NNW
Cosmos 1975 3.3 21:26:07 10° N 21:30:05 49° ENE 21:32:28 22° SE
Meteor 2-4 Rocket 4.3 21:26:19 17° SSE 21:30:18 41° E 21:35:36 10° NNE
Cosmos 2369 3.7 21:27:30 10° SSW 21:33:05 70° ESE 21:38:45 10° NNE
Cosmos 1980 Rocket 2.2 21:27:36 10° SSW 21:33:07 62° ESE 21:38:43 10° NE
Cosmos 44 Rocket 3.8 21:29:01 10° NW 21:33:39 51° NE 21:37:15 16° ESE
Cosmos 773 Rocket 4.0 21:29:37 10° NNW 21:34:54 89° W 21:38:32 20° SSE
Cosmos 2034 Rocket 4.1 21:31:23 10° S 21:37:41 85° WNW 21:44:04 10° N
Cosmos 2322 Rocket 3.8 21:37:57 14° ESE 21:39:30 16° E 21:42:42 10° ENE
SAR-Lupe-4 4.1 21:36:30 10° NNE 21:39:58 42° E 21:41:31 26° SSE
CZ-4B R/B 4.5 21:39:33 10° NNW 21:41:02 13° WNW 21:42:29 10° W
EXPRESS MD2 4.3 21:37:50 10° W 21:42:01 26° SW 21:43:14 21° S
Meteor 1-4 Rocket 4.3 21:42:07 10° NNE 21:44:45 20° ENE 21:46:14 16° E
Cosmos 1184 Rocket 4.2 21:44:49 10° SW 21:47:37 34° WNW 21:50:26 10° N
Cosmos 1844 Rocket 4.1 21:44:28 10° NNW 21:49:23 30° NE 21:54:14 10° ESE
ATLAS 2AS CENTAUR R/B 3.1 21:43:58 10° SSW 21:51:30 54° ESE 21:58:48 10° NE
Cosmos 1726 4.5 21:50:19 10° NE 21:52:07 13° ENE 21:53:53 10° E
Cosmos 1697 Rocket 3.4 21:48:22 10° SW 21:53:56 57° NW 21:59:33 10° NNE
Meteor 1-18 Rocket 4.2 21:50:23 17° S 21:54:53 75° E 22:00:33 10° NNE
Cosmos 2297 Rocket 4.5 21:52:35 10° WNW 21:55:39 15° W 21:58:43 10° SW
Cosmos 2227 4.3 21:49:54 10° NNW 21:55:41 75° ENE 21:59:27 23° SE
SPOT 5 4.1 21:51:21 12° SSW 21:55:54 41° W 22:00:49 10° NNW
NOSS 3-4 (A) 3.8 21:50:12 10° SW 21:55:57 67° NW 22:02:18 10° NE
NOSS 3-4 (C) 3.8 21:50:16 10° SW 21:56:02 67° NW 22:02:23 10° NE
Cosmos 482 Debris 4.2 21:53:42 10° WNW 21:56:49 63° SSW 21:59:28 23° SE
Cosmos 1733 Rocket 3.3 21:53:13 10° N 21:57:38 60° ENE 21:59:56 27° SSE
Cosmos 1503 Rocket 4.2 21:52:24 10° SSW 21:57:40 75° WNW 22:03:02 10° NNE
SAR-Lupe-1 4.0 21:57:10 10° NNE 22:00:47 84° ESE 22:02:41 26° SSW
ALOS 2 4.3 21:58:43 14° ESE 22:01:20 23° ENE 22:04:47 10° N
Cosmos 1538 Rocket 4.1 21:56:36 10° NNW 22:01:53 69° ENE 22:04:59 25° SE
USA 267 3.4 21:56:13 10° ESE 22:02:45 74° NNE 22:09:17 10° WNW
Cosmos 2279 Rocket 4.2 22:03:28 23° SSE 22:07:16 55° E 22:13:18 10° NNE
Meteor 2-8 Rocket 4.4 22:03:30 21° S 22:07:47 73° E 22:13:51 10° NNE
Cosmos 1862 Rocket 3.9 22:07:49 29° SSE 22:09:46 49° E 22:14:06 10° NNE
Cosmos 1378 3.2 22:10:25 25° SSW 22:12:26 70° WNW 22:16:06 10° N
SJ 16-02 1.5 22:09:38 14° SSW 22:13:19 73° WNW 22:17:43 10° NNE
ISS -3.9 22:10:04 10° WNW 22:13:24 69° SSW 22:14:25 40° SE
Cosmos 1733 3.8 22:11:01 10° N 22:14:40 42° ENE 22:16:00 30° ESE
SL-16 R/B 2.8 22:13:00 26° SSE 22:15:28 38° ESE 22:20:41 10° NE
Terra 3.0 22:13:04 16° SSW 22:16:24 35° W 22:20:46 10° NNW
ERS-1 Rocket 4.4 22:13:37 12° SSW 22:17:33 29° W 22:21:56 10° NNW
Cosmos 158 Rocket 4.1 22:13:24 10° NNW 22:18:28 67° WSW 22:21:14 27° S
Cosmos 2228 Rocket 3.9 22:17:27 14° SSW 22:21:15 49° WNW 22:25:42 10° N
Spot 4 4.3 22:19:06 26° SE 22:21:35 54° ENE 22:26:16 10° N
ATLAS 3B R/B 2.9 22:17:26 10° NW 22:24:47 86° NE 22:30:15 21° SE
SL-24 R/B - RUBIN 2 3.5 22:20:42 10° NW 22:25:04 75° SW 22:27:02 33° SSE
Meteor 2-15 4.4 22:21:00 22° S 22:25:08 88° E 22:31:15 10° N
NOSS 2-1 (E) 4.1 22:28:40 26° E 22:28:40 26° E 22:30:48 10° ENE
Cosmos 1346 Rocket 2.8 22:26:44 30° SSW 22:28:38 83° WNW 22:32:40 10° N
Cosmos 2278 3.8 22:28:06 12° SSW 22:33:27 79° WNW 22:39:11 10° NNE
ATLAS CENTAUR R/B 3.3 22:29:39 10° NNW 22:34:06 33° NNE 22:38:26 10° E
RESURS DK-1 2.5 22:33:35 19° SW 22:36:25 74° WNW 22:40:34 10° NNE
ARIANE 5 R/B 4.4 22:36:51 14° SW 22:39:35 24° W 22:43:16 10° NW
CZ-4C R/B 3.9 22:35:19 10° NW 22:41:35 42° NNE 22:49:05 10° E
Cosmos 1680 Rocket 4.0 22:38:18 10° NNW 22:43:33 55° ENE 22:46:30 25° SE
Cosmos 1634 Rocket 4.4 22:39:35 16° SSW 22:44:35 58° WNW 22:50:42 10° N
Cosmos 2360 Rocket 3.1 22:44:33 27° SE 22:46:17 32° ESE 22:51:14 10° NE
Cosmos 1655 Rocket 4.1 22:43:01 10° N 22:49:17 73° ENE 22:52:38 29° SSE
Cosmos 2263 Rocket 3.3 22:47:04 10° NW 22:51:57 32° WSW 22:54:33 21° SSW
Cosmos 1441 Rocket 3.1 22:54:07 43° SSW 22:55:15 79° WNW 22:59:00 10° N
Cosmos 2278 Rocket 4.5 22:54:01 10° NNW 22:58:12 20° NE 23:02:22 10° E
Cosmos 1356 3.2 22:58:53 63° S 22:59:21 88° ESE 23:02:41 10° NNE
Cosmos 990 Rocket 4.1 22:57:57 34° S 23:00:09 62° ESE 23:05:21 10° NNE
Cosmos 1898 Rocket 4.0 22:58:42 32° SSE 23:00:32 44° ESE 23:05:35 10° NE
Cosmos 1066 Rocket 4.2 22:59:05 28° SSW 23:02:15 87° W 23:07:59 10° NNE
NOSS 2-1 (C) 2.6 23:03:56 66° SSW 23:04:18 79° SE 23:07:35 10° NE
NOSS 2-1 (D) 2.6 23:05:15 65° SSW 23:05:39 82° SE 23:08:57 10° NE
Okean 1-7 3.0 23:06:11 41° S 23:07:37 72° E 23:11:59 10° NNE
ERS-2 2.3 23:04:37 10° NNE 23:08:12 54° ESE 23:08:43 49° SE
USA 215 3.2 23:02:21 10° ENE 23:08:57 79° SSE 23:15:32 10° SW
Meteor 2-10 4.1 23:03:50 10° NNW 23:09:11 73° W 23:11:25 35° S
Meteor 1-23 Rocket 4.5 23:08:20 32° SSE 23:10:57 60° E 23:16:41 10° NNE
Cosmos 44 Rocket 4.3 23:10:53 10° WNW 23:14:57 29° WSW 23:15:56 27° SW
Cosmos 2333 Rocket 3.2 23:14:42 27° SE 23:16:23 31° ESE 23:21:19 10° NE
Cosmos 1805 4.1 23:13:33 10° NNW 23:17:11 38° W 23:18:14 32° SW
Cosmos 1980 Rocket 3.9 23:12:34 10° WSW 23:17:32 31° NW 23:22:34 10° NNE
Cosmos 1703 Rocket 3.5 23:17:22 41° S 23:18:53 86° E 23:23:21 10° N
Meteor 1-4 Rocket 3.6 23:16:34 10° NNW 23:19:39 31° W 23:20:13 29° WSW
Cosmos 2322 Rocket 2.1 23:19:43 29° SSW 23:22:41 85° ESE 23:28:21 10° NNE
Iridium 4 Rocket 3.4 23:20:59 10° N 23:25:19 60° W 23:27:03 35° SSW
Cosmos 1766 3.5 23:22:35 10° NNW 23:26:26 57° W 23:27:21 44° SW
Cosmos 1726 2.2 23:23:53 10° NNW 23:27:31 61° W 23:28:10 51° SW
Cosmos 1782 Rocket 3.5 23:27:12 10° NNW 23:31:34 78° W 23:32:52 44° S
Cosmos 2242 Rocket 3.6 23:31:12 41° S 23:32:47 90° E 23:37:23 10° N
Cosmos 1844 Rocket 2.7 23:28:09 10° NW 23:33:42 63° WSW 23:35:56 35° S
Okean 3 3.4 23:33:54 44° SSW 23:35:11 80° W 23:39:27 10° N
Cosmos 1674 4.2 23:36:22 22° ESE 23:37:05 23° E 23:40:06 10° NE
ALOS 2 3.1 23:36:07 37° SSW 23:37:23 49° W 23:41:40 10° NNW
Meteor 1-15 Rocket 4.5 23:32:53 10° NNW 23:38:24 58° W 23:40:53 32° SSW
ADEOS Rocket 2.8 23:37:58 34° S 23:40:32 78° WSW 23:46:29 10° NNW
Cosmos 2266 Rocket 4.5 23:35:26 10° NNW 23:41:29 50° W 23:44:34 27° SSW
H-2A R/B 4.1 23:38:37 10° N 23:42:34 49° WNW 23:44:11 30° SW
ATLAS 2AS CENTAUR R/B 3.6 23:35:01 10° WSW 23:42:37 55° NW 23:49:55 10° NE
Cosmos 1626 3.8 23:41:56 21° ESE 23:42:38 22° E 23:45:32 10° NE
Okean 2 Rocket 3.9 23:38:21 10° N 23:42:42 44° ENE 23:44:42 27° SE
Cosmos 1844 3.8 23:38:45 10° NW 23:44:30 63° WSW 23:46:56 34° S
USA 267 3.5 23:42:55 29° SSE 23:46:01 49° SW 23:52:20 10° WNW
Cosmos 2219 Rocket 2.7 23:50:24 32° SSE 23:52:23 44° ESE 23:57:40 10° NE
Cosmos 2237 4.5 23:48:59 23° SW 23:52:35 67° WNW 23:58:19 10° NNE
SJ 16-02 4.1 23:50:43 10° WNW 23:52:44 13° NW 23:54:45 10° NNW
Cosmos 1461 3.6 23:49:00 10° NNW 23:53:01 51° NE 23:56:05 17° ESE
Cosmos 1300 Rocket 3.4 23:50:03 10° NNW 23:54:24 83° W 23:55:42 45° S
Cosmos 1238 Rocket 3.3 23:52:16 10° N 23:55:00 32° ENE 23:55:23 30° E
